DW5444 Weather Reports


time (UTC)temp
F
wind
direction
speed
knots
gust
knots
rain 1hr
in
rain 24hr
in
rain mn
in
humidity
%
barometer
mb
20260508173031 60 254 5.2 7.8 0.00 0.00 0.00 57 1015.7
20260508171540 60 236 5.2 12.2 0.00 0.00 0.00 57 1015.8
20260508170027 59 254 7.0 14.8 0.00 0.00 0.00 54 1015.7
20260508164526 58 233 6.1 13.0 0.00 0.00 0.00 54 1015.5
20260508163023 58 249 7.8 13.0 0.00 0.00 0.00 53 1015.5
20260508161534 57 260 4.3 7.8 0.00 0.00 0.00 58 1015.4
20260508160017 55 254 4.3 7.0 0.00 0.00 0.00 61 1015.4
20260508154520 54 248 4.3 7.8 0.00 0.00 0.00 61 1015.4
20260508153025 54 241 5.2 8.7 0.00 0.00 0.00 59 1015.4
20260508151512 55 232 5.2 8.7 0.00 0.00 0.00 58 1015.2
20260508150011 55 251 5.2 8.7 0.00 0.00 0.00 56 1015.3
20260508144510 56 265 6.1 11.3 0.00 0.00 0.00 52 1015.2
20260508143009 55 275 4.3 9.6 0.00 0.00 0.00 52 1015.2
20260508141507 56 220 3.5 11.3 0.00 0.00 0.00 49 1015.1
20260508140006 55 222 3.5 7.8 0.00 0.00 0.00 49 1015.1
20260508134600 54 239 2.6 6.1 0.00 0.00 0.00 49 1014.8
20260508133103 52 213 2.6 4.3 0.00 0.00 0.00 50 1014.7
20260508131557 50 239 2.6 5.2 0.00 0.00 0.00 50 1014.7
20260508130056 50 230 3.5 7.0 0.00 0.00 0.00 49 1014.7
20260508124555 50 225 1.7 5.2 0.00 0.00 0.00 46 1014.6
20260508123054 52 223 1.7 7.8 0.00 0.00 0.00 47 1014.5
20260508121552 51 213 4.3 9.6 0.00 0.00 0.00 43 1014.5
20260508120100 50 218 2.6 6.1 0.00 0.00 0.00 48 1014.4
20260508114559 50 237 3.5 6.1 0.00 0.00 0.00 49 1014.5
20260508113050 50 199 1.7 5.2 0.00 0.00 0.00 49 1014.6
20260508111546 51 222 2.6 5.2 0.00 0.00 0.00 46 1014.5
20260508110048 52 220 4.3 8.7 0.00 0.00 0.00 46 1014.5
20260508104545 52 195 3.5 7.0 0.00 0.00 0.00 46 1014.5
20260508103048 52 239 4.3 8.7 0.00 0.00 0.00 46 1014.4
20260508101642 52 225 4.3 7.8 0.00 0.00 0.00 45 1014.4
20260508100058 53 208 3.5 8.7 0.00 0.00 0.00 45 1014.3
20260508094543 53 213 5.2 10.4 0.00 0.00 0.00 44 1014.3
20260508093039 52 194 3.5 7.8 0.00 0.00 0.00 46 1014.2
20260508091546 52 225 3.5 7.0 0.00 0.00 0.00 43 1014.3
20260508090040 51 227 4.3 8.7 0.00 0.00 0.00 42 1014.4
20260508084533 51 159 2.6 7.0 0.00 0.00 0.00 39 1014.4
20260508083033 50 146 1.7 3.5 0.00 0.00 0.00 40 1014.3
20260508081530 52 104 2.6 5.2 0.00 0.00 0.00 35 1014.3
20260508080034 52 167 2.6 6.1 0.00 0.00 0.00 35 1014.2
20260508074531 51 129 3.5 6.1 0.00 0.00 0.00 32 1014.1
20260508073029 50 149 2.6 3.5 0.00 0.00 0.00 32 1014.0
20260508071532 50 163 2.6 4.3 0.00 0.00 0.00 32 1014.2
20260508070020 52 151 2.6 5.2 0.00 0.00 0.00 32 1014.1
20260508064526 53 202 1.7 5.2 0.00 0.00 0.00 30 1014.0
20260508063021 52 206 2.6 5.2 0.00 0.00 0.00 30 1014.0
20260508061518 53 209 2.6 5.2 0.00 0.00 0.00 27 1014.0
20260508060025 55 230 4.3 7.8 0.00 0.00 0.00 22 1014.1
20260508054542 57 234 5.2 9.6 0.00 0.00 0.00 21 1014.2
20260508053017 57 229 4.3 8.7 0.00 0.00 0.00 22 1014.1
20260508051515 57 210 4.3 10.4 0.00 0.00 0.00 22 1014.0
20260508050014 58 247 4.3 10.4 0.00 0.00 0.00 22 1013.9
20260508044514 58 208 3.5 7.8 0.00 0.00 0.00 23 1014.0
20260508043013 58 226 4.3 8.7 0.00 0.00 0.00 23 1013.9
20260508041514 57 222 4.3 8.7 0.00 0.00 0.00 24 1013.7
20260508040011 56 242 2.6 4.3 0.00 0.00 0.00 26 1013.6
20260508034511 56 199 0.9 4.3 0.00 0.00 0.00 28 1013.4
20260508033014 57 209 1.7 5.2 0.00 0.00 0.00 26 1013.2
20260508031511 58 229 2.6 5.2 0.00 0.00 0.00 26 1013.1
20260508030007 59 205 1.7 6.1 0.00 0.00 0.00 29 1013.1
20260508024508 59 239 2.6 4.3 0.00 0.00 0.00 35 1013.0
20260508023008 59 230 2.6 4.3 0.00 0.00 0.00 37 1012.9
20260508021505 59 195 1.7 2.6 0.00 0.00 0.00 41 1012.8
20260508020006 61 156 0.0 0.9 0.00 0.00 0.00 40 1012.8
20260508014506 62 233 0.0 1.7 0.00 0.00 0.00 37 1012.8
20260508013005 63 246 1.7 2.6 0.00 0.00 0.00 35 1012.8
20260508011504 63 236 1.7 2.6 0.00 0.00 0.00 32 1012.9
20260508010007 63 254 2.6 6.1 0.00 0.00 0.00 31 1012.9
20260508004505 65 264 4.3 7.0 0.00 0.00 0.00 30 1012.9
20260508003001 66 265 4.3 10.4 0.00 0.00 0.00 29 1012.9
20260508001505 68 258 5.2 10.4 0.00 0.00 0.00 26 1012.8
20260508000100 68 248 7.0 10.4 0.00 0.00 0.00 24 1012.9
20260507234603 68 257 7.0 11.3 0.00 0.00 0.00 24 1012.9
20260507233057 67 253 7.0 12.2 0.00 0.00 0.00 25 1013.1
20260507231555 68 229 7.0 11.3 0.00 0.00 0.00 26 1013.0
20260507230054 68 268 8.7 13.9 0.00 0.00 0.00 23 1013.2
20260507224552 68 270 7.0 11.3 0.00 0.00 0.00 32 1013.3
20260507223050 68 244 7.0 10.4 0.00 0.00 0.00 30 1013.4
20260507221549 68 281 7.0 12.2 0.00 0.00 0.00 36 1013.5
20260507220046 67 267 6.1 10.4 0.00 0.00 0.00 37 1013.7
20260507214549 67 288 4.3 10.4 0.00 0.00 0.00 33 1013.8
20260507213047 67 279 6.1 11.3 0.00 0.00 0.00 34 1013.8
20260507211545 67 282 6.1 9.6 0.00 0.00 0.00 37 1013.9
20260507210041 67 275 8.7 13.0 0.00 0.00 0.00 36 1014.0
20260507204540 66 277 5.2 10.4 0.00 0.00 0.00 35 1014.1
20260507203039 66 281 3.5 10.4 0.00 0.00 0.00 38 1014.2
20260507201536 65 265 5.2 10.4 0.00 0.00 0.00 40 1014.3
20260507200035 65 246 3.5 9.6 0.00 0.00 0.00 45 1014.3
20260507194533 65 272 6.1 13.9 0.00 0.00 0.00 40 1014.4
20260507193035 64 288 7.0 12.2 0.00 0.00 0.00 41 1014.4
20260507191529 64 284 4.3 12.2 0.00 0.00 0.00 44 1014.6
20260507190027 63 287 7.0 10.4 0.00 0.00 0.00 43 1014.6
20260507184525 63 278 5.2 11.3 0.00 0.00 0.00 40 1014.7
20260507183035 62 226 5.2 13.9 0.00 0.00 0.00 45 1014.9
20260507181519 61 289 7.0 12.2 0.00 0.00 0.00 49 1014.8
20260507180019 60 270 7.8 13.9 0.00 0.00 0.00 50 1014.9
20260507174518 60 278 8.7 13.9 0.00 0.00 0.00 47 1014.8